Regional Weather Roundup
Issued by NWS

Home | Current Version | Previous Version | Graphics & Text | Print | Product List | Glossary On
Versions: 1 2 3 4 5 6 7 8 9 10 11 12 13 14 15 16 17 18 19 20 21 22 23 24 25 26 27 28 29 30 31 32 33 34 35 36 37 38 39 40 41 42 43 44 45 46 47 48 49 50
000
ASUS43 KOAX 202010
RWRNE

WEATHER ROUNDUP FOR NEBRASKA
NATIONAL WEATHER SERVICE OMAHA NE
300 PM CDT FRI OCT 20 2017

NOTES: SATELLITE DATA IS BEING USED TO AUGMENT CLOUD COVER ABOVE
       12000 FEET.
       "FAIR" INDICATES FEW OR NO CLOUDS BELOW 12,000 FEET WITH NO
       SIGNIFICANT WEATHER AND/OR OBSTRUCTIONS TO VISIBILITY.


NEZ001>004-019>022-054>056-202100-
NEBRASKA PANHANDLE

CITY           SKY/WX    TMP DP  RH WIND       PRES   REMARKS
SCOTTSBLUFF    SUNNY     79  37  22 SE8       29.49F
ALLIANCE       SUNNY     75  40  28 SE14      29.51F
CHADRON        SUNNY     83  35  18 S9        29.41F
GORDON         FAIR      78  41  26 S8        29.47F
KIMBALL        SUNNY     78  31  18 S13       29.56F
SIDNEY         SUNNY     77  39  25 S10       29.56F
$$

NEZ057>060-069>072-079>082-202100-
SOUTHWEST NEBRASKA

CITY           SKY/WX    TMP DP  RH WIND       PRES   REMARKS
NORTH PLATTE   SUNNY     73  53  49 S13G28    29.56F
IMPERIAL       SUNNY     72  51  47 S12       29.57F
LEXINGTON      SUNNY     75  53  46 S28G36    29.59F
MCCOOK         MOSUNNY   79  51  37 S20G37    29.56F
OGALLALA       SUNNY     73  50  43 S15G21    29.56F
$$

NEZ005>010-023>029-035>040-094-202100-
NORTH CENTRAL NEBRASKA

CITY           SKY/WX    TMP DP  RH WIND       PRES   REMARKS
VALENTINE      SUNNY     77  50  38 S22       29.50F
AINSWORTH      CLOUDY    72  54  53 S22G29    29.54F
BROKEN BOW     PTSUNNY   72  54  53 S21G31    29.59F
O`NEILL        MOSUNNY   75  56  50 S24G31    29.57F
ORD            SUNNY     74  54  49 S23G40    29.58F
THEDFORD       MOSUNNY   72  52  49 S22G31    29.57F
$$

NEZ041-046>049-061>064-073>077-083>087-202100-
SOUTH CENTRAL NEBRASKA

CITY           SKY/WX    TMP DP  RH WIND       PRES   REMARKS
GRAND ISLAND   SUNNY     76  57  51 S31G40    29.64F
AURORA         SUNNY     75  55  49 S29G40    29.66F
HASTINGS       SUNNY     75  55  49 S18G41    29.65F
HEBRON         PTSUNNY   77  58  52 S23G33    29.73F
HOLDREGE       CLOUDY    75  55  50 S25G35    29.62F
KEARNEY        CLOUDY    77  56  48 S35G43    29.61F
YORK           SUNNY     75  57  53 S18G38    29.69F
$$

NEZ011>018-030>034-042>045-202100-
NORTHEAST NEBRASKA

CITY           SKY/WX    TMP DP  RH WIND       PRES   REMARKS
NORFOLK        MOSUNNY   76  56  49 S29G37    29.63F
ALBION         SUNNY     76  56  50 S28G36    29.64F
BLAIR          CLOUDY    74  58  58 S20G29    29.76F
COLUMBUS       SUNNY     75  57  53 S25G33    29.67F
FREMONT        MOSUNNY   76  57  51 SE22G31   29.73F
TEKAMAH        MOSUNNY   77  56  48 S25G36    29.74F
WAYNE          PTSUNNY   73  54  52 S22G31    29.67F
$$

NEZ050>053-065>068-078-088>093-202100-
SOUTHEAST NEBRASKA

CITY           SKY/WX    TMP DP  RH WIND       PRES   REMARKS
LINCOLN        CLOUDY    76  59  55 S24G36    29.73F
OMAHA EPPLEY   CLOUDY    76  57  51 S20G31    29.76F
BEATRICE       PTSUNNY   77  60  56 S26G35    29.75F
FALLS CITY     PTSUNNY   74  58  57 S25G39    29.82F
NEBRASKA CITY  PTSUNNY   76  61  59 S21G33    29.79F
PLATTSMOUTH    PTSUNNY   77  59  54 S18G31    29.77F
$$

NEZ044-045-051>053-067-202100-
OMAHA AREA

CITY           SKY/WX    TMP DP  RH WIND       PRES   REMARKS
OMAHA EPPLEY   CLOUDY    76  57  51 S20G31    29.76F
BLAIR          CLOUDY    74  58  58 S20G29    29.76F
FREMONT        MOSUNNY   76  57  51 SE22G31   29.73F
MILLARD        CLOUDY    76  60  57 S20G35    29.76F
OFFUTT AFB     MOSUNNY   77  58  52 S21G26    29.76F
PLATTSMOUTH    PTSUNNY   77  59  54 S18G31    29.77F
WAHOO          FAIR      75  57  53 S30G41    29.73F
$$




USA.gov is the U.S. government's official web portal to all federal, state and local government web resources and services.